This demonstration page uses our WeatherBlox Daily Observations layout. Learn more.

Left ArrowRight Arrow

41.55636, -103.73856

Hourly Observations for February 15, 2020

Temp ( °F °C ) Dew Point ( °F °C ) Humidity (%) Winds ( mph kmh ) Pressure ( in mb ) Visibility ( mi km ) Precip ( " mm )
12:53 am 00:53 Cloudy 32 undefined 24 -4.4 73 73 W 8 13 29.97 1015 10 16 N/A
1:53 am 01:53 Partly Cloudy 29 -1.7 22 -5.6 75 75 WNW 8 13 29.99 1016 10 16 N/A
2:53 am 02:53 Clear 24 -4.4 21 -6.1 88 88 WNW 6 9 30.01 1016 10 16 N/A
3:53 am 03:53 Clear 24 -4.4 21 -6.1 88 88 WNW 6 9 30.02 1017 10 16 N/A
4:53 am 04:53 Clear 21 -6.1 19 -7.2 92 92 NNW 5 7 30.06 1018 10 16 N/A
5:53 am 05:53 Clear 20 -6.7 18 -7.8 92 92 NNW 7 11 30.09 1019 10 16 N/A
6:53 am 06:53 Sunny 20 -6.7 18 -7.8 92 92 N 7 11 30.10 1019 10 16 N/A
7:53 am 07:53 Sunny 24 -4.4 21 -6.1 88 88 SSW 5 7 30.09 1019 10 16 N/A
8:53 am 08:53 Sunny 31 -0.6 24 -4.4 76 76 NW 6 9 30.10 1019 10 16 N/A
9:53 am 09:53 Sunny 35 1.7 23 -5 61 61 VRB 6 9 30.08 1019 10 16 N/A
10:53 am 10:53 Sunny 40 4.4 22 -5.6 49 49 WNW 3 6 30.08 1019 10 16 N/A
11:53 am 11:53 Sunny 44 6.7 14 -10 30 30 WSW 8 13 30.04 1017 10 16 N/A
12:53 pm 12:53 Sunny 45 7.2 14 -10 29 29 N N/A 29.98 1015 10 16 N/A
1:21 pm 13:21 Sunny 47 8.3 14 -10 26 26 W 20 31 29.93 1014 10 16 N/A
1:53 pm 13:53 Sunny 46 7.8 19 -7.2 34 34 WSW 21 33 29.97 1015 10 16 N/A
2:53 pm 14:53 Cloudy 43 6.1 24 -4.4 47 47 WSW 18 30 30.01 1016 10 16 N/A
3:53 pm 15:53 Mostly Cloudy 44 6.7 23 -5 43 43 SW 16 26 29.98 1015 10 16 N/A
4:53 pm 16:53 Cloudy 42 5.6 22 -5.6 45 45 W 15 24 29.99 1016 10 16 N/A
5:53 pm 17:53 Mostly Clear 34 1.1 23 -5 64 64 W 6 9 30.02 1017 10 16 N/A
6:53 pm 18:53 Partly Cloudy 39 3.9 21 -6.1 48 48 W 15 24 30.00 1016 10 16 N/A
7:53 pm 19:53 Clear 36 2.2 21 -6.1 55 55 W 14 22 30.01 1016 10 16 N/A
8:53 pm 20:53 Clear 31 -0.6 21 -6.1 67 67 W 8 13 30.03 1017 10 16 N/A
9:53 pm 21:53 Clear 29 -1.7 20 -6.7 69 69 WNW 6 9 30.05 1018 10 16 N/A
10:53 pm 22:53 Clear 25 -3.9 19 -7.2 78 78 NNW 7 11 30.04 1017 10 16 N/A
11:53 pm 23:53 Clear 24 -4.4 18 -7.8 77 77 N N/A 30.04 1017 10 16 N/A

Powered by AerisWeather